Volver al catálogo

RASSVET-3 8

ActivoCienciaPO
NORAD 68367·PAYLOAD·🇷🇺 Russia

Lanzado Mar 23, 2026 desde Plesetsk Cosmodrome

Loading…

Próximos Pases (próximas 24 horas)

TLE

ActualizadoSource: Space-Track

Época: Sep 14, 2026, 01:25 UTC

1 68367U 26061H   26257.05953129  .00002784  00000-0  13392-3 0  9993
2 68367  82.2887 280.8739 0003163 129.3918 230.7596 15.18408519 27092

Sigue RASSVET-3 8 en tiempo real con AllMySat

Download on the App Store